Weather History for Salina, KS

Change the Weather History Date:

Wednesday, February 13, 2013

  Actual Average Record
Temperature  
Mean Temperature 41 °F 35 °F  
Max Temperature 58 °F 46 °F 78 °F (1921)
Min Temperature 23 °F 24 °F -31 °F (1905)
Degree Days  
Heating Degree Days 24 30  
Month to date heating degree days 340 410  
Since 1 July heating degree days 3105 3426  
Cooling Degree Days 0 0  
Month to date cooling degree days 0 0  
Year to date cooling degree days 0 0  
Moisture  
Dew Point 21 °F    
Average Humidity 51    
Maximum Humidity 78    
Minimum Humidity 23    
Precipitation  
Precipitation 0.00 in 0.04 in 0.64 in (2003)
Month to date precipitation 1.18 0.49  
Year to date precipitation 2.06 1.12  
Sea Level Pressure  
Sea Level Pressure 29.93 in    
Wind  
Wind Speed 9 mph (West)    
Max Wind Speed 23 mph    
Max Gust Speed 32 mph    
Visibility 10 miles    
Events      
T = Trace of Precipitation, MM = Missing Value Source: NWS Daily Summary

Daily Weather History Graph

Daily Weather History Graph

Search for Another Location

Airport:

Trip Planner

Search our weather history database for the weather conditions in past years. The results will help you decide how hot, cold, wet, or windy it might be!

Date:

Astronomy

Feb. 13, 2013 Rise Set
Actual Time 7:23 AM CST 6:06 PM CST
Civil Twilight 6:56 AM CST 6:33 PM CST
Nautical Twilight 6:25 AM CST 7:04 PM CST
Astronomical Twilight 5:54 AM CST 7:35 PM CST
Moon 8:56 AM CST (2/13) 10:07 PM CST (2/13)
Length of Visible Light 11h 37m
Length of Day
10h 42m
Waxing Crescent, 14% of the Moon is Illuminated
Feb 13
Waxing Crescent
Feb 17
First Quarter
Feb 25
Full
Mar 4
Last Quarter
Mar 11
New

Hourly Weather History & Observations

Time (CST) Temp. Windchill Dew Point Humidity Pressure Visibility Wind Dir Wind Speed Gust Speed Precip Events Conditions
12:53 AM 28.0 °F - 21.9 °F 78% 30.01 in 10.0 mi Calm Calm - N/A   Clear
1:53 AM 27.0 °F 21.6 °F 19.9 °F 75% 30.00 in 10.0 mi WNW 4.6 mph - N/A   Clear
2:53 AM 26.1 °F 17.6 °F 18.0 °F 71% 30.00 in 10.0 mi WNW 8.1 mph - N/A   Clear
3:53 AM 26.1 °F - 18.0 °F 71% 29.99 in 10.0 mi Calm Calm - N/A   Clear
4:53 AM 26.1 °F 19.4 °F 17.1 °F 69% 29.99 in 10.0 mi West 5.8 mph - N/A   Clear
5:53 AM 26.1 °F 20.5 °F 18.0 °F 71% 29.98 in 10.0 mi SW 4.6 mph - N/A   Clear
6:53 AM 24.1 °F 19.7 °F 18.0 °F 77% 29.97 in 10.0 mi South 3.5 mph - N/A   Clear
7:53 AM 27.0 °F 20.5 °F 19.0 °F 72% 29.99 in 10.0 mi WSW 5.8 mph - N/A   Clear
8:53 AM 33.1 °F 26.1 °F 21.9 °F 64% 29.99 in 10.0 mi West 8.1 mph - N/A   Clear
9:53 AM 39.9 °F 33.9 °F 23.0 °F 51% 29.99 in 10.0 mi WNW 9.2 mph - N/A   Clear
10:53 AM 45.0 °F 40.6 °F 23.0 °F 42% 29.97 in 10.0 mi West 8.1 mph - N/A   Clear
11:53 AM 48.9 °F - 25.0 °F 39% 29.95 in 10.0 mi SW 10.4 mph - N/A   Clear
12:53 PM 53.1 °F - 21.0 °F 29% 29.92 in 10.0 mi West 15.0 mph 20.7 mph N/A   Clear
1:53 PM 55.0 °F - 19.9 °F 25% 29.89 in 10.0 mi West 16.1 mph - N/A   Clear
2:53 PM 57.0 °F - 19.9 °F 24% 29.87 in 10.0 mi West 20.7 mph 32.2 mph N/A   Clear
3:53 PM 57.9 °F - 21.0 °F 24% 29.86 in 10.0 mi WNW 18.4 mph - N/A   Clear
4:53 PM 57.0 °F - 21.9 °F 26% 29.85 in 10.0 mi WNW 17.3 mph - N/A   Clear
5:53 PM 51.1 °F - 21.9 °F 32% 29.86 in 10.0 mi West 8.1 mph - N/A   Clear
6:53 PM 43.0 °F 38.2 °F 21.9 °F 43% 29.88 in 10.0 mi West 8.1 mph - N/A   Clear
7:53 PM 44.1 °F 39.5 °F 21.9 °F 42% 29.88 in 10.0 mi West 8.1 mph - N/A   Clear
8:53 PM 42.1 °F 36.1 °F 23.0 °F 47% 29.87 in 10.0 mi WSW 10.4 mph - N/A   Clear
9:53 PM 39.9 °F 35.8 °F 24.1 °F 53% 29.88 in 10.0 mi WSW 5.8 mph - N/A   Clear
10:53 PM 37.9 °F - 23.0 °F 55% 29.89 in 10.0 mi Calm Calm - N/A   Clear
11:53 PM 39.9 °F 33.9 °F 24.1 °F 53% 29.90 in 10.0 mi West 9.2 mph - N/A   Clear